GW4611 Weather Reports


Display with metric or nautical units.
time (UTC)temp
F
wind
direction
speed
MPH
gust
MPH
rain 1hr
in
rain 24hr
in
rain mn
in
humidity
%
barometer
mb
20260503174847 58 325 2.0 8.0 0.00 0.00 0.00 29 1018.4
20260503174345 58 280 9.0 14.0 0.00 0.00 0.00 30 1018.3
20260503173845 57 104 2.0 3.0 0.00 0.00 0.00 32 1018.5
20260503173342 58 47 3.0 9.0 0.00 0.00 0.00 31 1018.7
20260503172838 59 302 2.0 9.0 0.00 0.00 0.00 35 1018.7
20260503172336 58 320 3.0 6.0 0.00 0.00 0.00 37 1018.7
20260503171832 58 26 6.0 10.0 0.00 0.00 0.00 28 1018.6
20260503171329 58 307 4.0 7.0 0.00 0.00 0.00 32 1018.7
20260503170826 58 307 4.0 8.0 0.00 0.00 0.00 33 1018.9
20260503170323 58 158 4.0 7.0 0.00 0.00 0.00 34 1018.9
20260503150715 51 291 4.0 6.0 0.00 0.00 0.00 42 1020.4
20260503150211 51 192 6.0 8.0 0.00 0.00 0.00 41 1020.3
20260503140136 49 35 6.0 10.0 0.00 0.00 0.00 44 1020.5
20260503131105 46 3 4.0 10.0 0.00 0.00 0.00 53 1020.2
20260503130602 46 283 5.0 9.0 0.00 0.00 0.00 51 1020.5
20260503110452 31 212 2.0 3.0 0.00 0.00 0.00 90 1019.6
20260503090338 36 2 0.0 0.0 0.00 0.00 0.00 83 1018.3
20260503081306 39 1 0.0 0.0 0.00 0.00 0.00 80 1018.1
20260503080802 39 1 0.0 0.0 0.00 0.00 0.00 78 1018.2
20260503080259 39 1 0.0 0.0 0.00 0.00 0.00 79 1017.6
20260503072736 38 1 0.0 1.0 0.00 0.00 0.00 80 1017.6
20260503072233 38 2 0.0 0.0 0.00 0.00 0.00 80 1017.6
20260503071729 38 2 0.0 0.0 0.00 0.00 0.00 80 1017.5
20260503071226 38 2 0.0 0.0 0.00 0.00 0.00 79 1017.6
20260503070722 38 2 0.0 0.0 0.00 0.00 0.00 79 1017.5
20260503070221 38 352 0.0 1.0 0.00 0.00 0.00 77 1017.3
20260503060145 40 340 0.0 0.0 0.00 0.00 0.00 73 1017.5
20260503054632 40 314 0.0 2.0 0.00 0.00 0.00 71 1017.4
20260503054129 41 310 2.0 3.0 0.00 0.00 0.00 71 1017.5
20260503053627 41 329 2.0 3.0 0.00 0.00 0.00 70 1017.4
20260503053125 41 332 0.0 0.0 0.00 0.00 0.00 71 1017.4
20260503052621 41 21 1.0 6.0 0.00 0.00 0.00 69 1017.4
20260503052118 41 341 1.0 2.0 0.00 0.00 0.00 70 1017.3
20260503051613 41 326 2.0 4.0 0.00 0.00 0.00 70 1017.4
20260503051111 41 333 0.0 0.0 0.00 0.00 0.00 72 1017.4
20260503050607 41 342 0.0 0.0 0.00 0.00 0.00 72 1017.4
20260503050104 40 343 0.0 1.0 0.00 0.00 0.00 71 1017.5
20260503045601 40 326 0.0 1.0 0.00 0.00 0.00 71 1017.6
20260503045059 41 317 1.0 2.0 0.00 0.00 0.00 71 1017.6
20260503044555 42 26 0.0 2.0 0.00 0.00 0.00 69 1017.5
20260503044053 42 332 1.0 3.0 0.00 0.00 0.00 68 1017.5
20260503043549 42 10 1.0 2.0 0.00 0.00 0.00 68 1017.4
20260503043046 42 16 1.0 2.0 0.00 0.00 0.00 68 1017.3
20260503042542 42 358 0.0 3.0 0.00 0.00 0.00 68 1017.4
20260503042038 42 5 0.0 3.0 0.00 0.00 0.00 67 1017.5
20260503041535 43 16 2.0 3.0 0.00 0.00 0.00 66 1017.3
20260503041033 43 6 1.0 3.0 0.00 0.00 0.00 66 1017.6
20260503040530 43 332 3.0 4.0 0.00 0.00 0.00 66 1017.4
20260503040028 44 20 1.0 4.0 0.00 0.00 0.00 65 1017.5
20260503035524 44 23 2.0 3.0 0.00 0.00 0.00 65 1017.4
20260503035022 44 343 3.0 8.0 0.00 0.00 0.00 65 1017.6
20260503034519 44 342 3.0 3.0 0.00 0.00 0.00 65 1017.5
20260503034016 44 12 2.0 4.0 0.00 0.00 0.00 65 1017.4
20260503033513 44 329 2.0 4.0 0.00 0.00 0.00 65 1017.3
20260503033011 44 339 2.0 4.0 0.00 0.00 0.00 65 1017.5
20260503032509 44 22 2.0 4.0 0.00 0.00 0.00 64 1017.6
20260503032007 44 24 4.0 7.0 0.00 0.00 0.00 65 1017.4
20260503031505 44 353 3.0 7.0 0.00 0.00 0.00 65 1017.4
20260503031001 44 319 2.0 3.0 0.00 0.00 0.00 68 1017.3
20260503030457 44 108 2.0 2.0 0.00 0.00 0.00 69 1017.0
20260503025954 44 162 0.0 0.0 0.00 0.00 0.00 69 1017.5
20260503025451 44 134 0.0 1.0 0.00 0.00 0.00 71 1017.2
20260503024949 44 98 0.0 0.0 0.00 0.00 0.00 68 1017.4
20260503024445 44 98 0.0 0.0 0.00 0.00 0.00 66 1017.5
20260503023942 44 101 0.0 0.0 0.00 0.00 0.00 67 1017.3
20260503023439 44 338 0.0 0.0 0.00 0.00 0.00 65 1017.4
20260503022936 44 317 1.0 2.0 0.00 0.00 0.00 65 1017.3
20260503022431 45 358 0.0 0.0 0.00 0.00 0.00 65 1017.4
20260503021927 45 11 1.0 2.0 0.00 0.00 0.00 63 1017.6
20260503021423 45 15 1.0 6.0 0.00 0.00 0.00 63 1017.4
20260503020921 46 350 1.0 2.0 0.00 0.00 0.00 62 1017.5
20260503020419 46 18 3.0 6.0 0.00 0.00 0.00 61 1017.3
20260503015915 46 328 3.0 7.0 0.00 0.00 0.00 60 1017.1
20260503015412 47 36 2.0 4.0 0.00 0.00 0.00 58 1017.0
20260503014908 47 355 4.0 7.0 0.00 0.00 0.00 57 1017.0
20260503014405 47 32 3.0 6.0 0.00 0.00 0.00 58 1016.9
20260503013903 47 13 2.0 4.0 0.00 0.00 0.00 57 1017.0
20260503013400 47 48 3.0 8.0 0.00 0.00 0.00 56 1016.9
20260503012857 47 287 2.0 6.0 0.00 0.00 0.00 57 1017.0
20260503012355 47 24 2.0 2.0 0.00 0.00 0.00 57 1016.7
20260503011851 47 341 2.0 3.0 0.00 0.00 0.00 56 1016.6
20260503011348 47 27 2.0 7.0 0.00 0.00 0.00 55 1016.6
20260503010844 48 34 0.0 3.0 0.00 0.00 0.00 55 1016.7
20260503010342 48 359 2.0 8.0 0.00 0.00 0.00 53 1016.3
20260503005838 48 26 4.0 6.0 0.00 0.00 0.00 51 1016.3
20260503005336 48 18 2.0 8.0 0.00 0.00 0.00 48 1016.0
20260503004832 49 332 3.0 4.0 0.00 0.00 0.00 47 1015.9
20260503004330 49 329 0.0 2.0 0.00 0.00 0.00 47 1015.7
20260503003827 49 325 2.0 4.0 0.00 0.00 0.00 46 1015.8
20260503003324 49 332 0.0 1.0 0.00 0.00 0.00 47 1015.9
20260503002821 50 3 1.0 2.0 0.00 0.00 0.00 45 1015.6
20260503002318 50 333 3.0 8.0 0.00 0.00 0.00 44 1015.7
20260503001814 50 349 2.0 3.0 0.00 0.00 0.00 46 1015.6
20260503001311 50 19 1.0 4.0 0.00 0.00 0.00 45 1015.6
20260503000808 50 31 1.0 2.0 0.00 0.00 0.00 46 1015.5
20260503000306 51 290 1.0 2.0 0.00 0.00 0.00 44 1015.6
20260502235802 51 352 0.0 1.0 0.00 0.00 0.00 45 1015.3
20260502235300 51 278 5.0 6.0 0.00 0.00 0.00 42 1015.3
20260502234756 51 296 0.0 1.0 0.00 0.00 0.00 43 1015.3
20260502234253 51 283 1.0 6.0 0.00 0.00 0.00 44 1015.0
20260502233749 51 318 4.0 6.0 0.00 0.00 0.00 43 1015.2
20260502233241 51 310 0.0 1.0 0.00 0.00 0.00 47 1014.9
20260502232737 51 329 1.0 2.0 0.00 0.00 0.00 46 1015.0
20260502232234 52 325 1.0 2.0 0.00 0.00 0.00 45 1015.0
20260502231731 52 297 0.0 3.0 0.00 0.00 0.00 44 1014.9
20260502231228 52 335 0.0 2.0 0.00 0.00 0.00 45 1014.9
20260502230726 52 327 1.0 2.0 0.00 0.00 0.00 45 1014.9
20260502230219 52 325 3.0 3.0 0.00 0.00 0.00 42 1015.0
20260502225715 52 329 2.0 6.0 0.00 0.00 0.00 42 1014.7
20260502225212 52 316 1.0 3.0 0.00 0.00 0.00 43 1015.0
20260502224708 52 21 0.0 3.0 0.00 0.00 0.00 42 1014.7
20260502224205 53 310 0.0 4.0 0.00 0.00 0.00 44 1014.9
20260502223703 53 321 3.0 4.0 0.00 0.00 0.00 41 1014.7
20260502223201 53 317 1.0 3.0 0.00 0.00 0.00 41 1014.7
20260502222658 53 336 2.0 3.0 0.00 0.00 0.00 41 1014.6
20260502222155 53 323 4.0 7.0 0.00 0.00 0.00 40 1014.6
20260502221650 53 22 2.0 6.0 0.00 0.00 0.00 39 1014.8
20260502221148 53 358 3.0 6.0 0.00 0.00 0.00 39 1014.5
20260502220643 54 28 4.0 4.0 0.00 0.00 0.00 40 1014.7
20260502220140 54 319 2.0 4.0 0.00 0.00 0.00 39 1014.7
20260502215637 54 234 2.0 3.0 0.00 0.00 0.00 35 1014.5
20260502215134 56 307 6.0 7.0 0.00 0.00 0.00 35 1014.6
20260502214631 56 228 4.0 8.0 0.00 0.00 0.00 36 1014.2
20260502214127 54 298 1.0 6.0 0.00 0.00 0.00 36 1014.6
20260502213625 54 342 2.0 3.0 0.00 0.00 0.00 38 1014.4
20260502213122 54 278 2.0 3.0 0.00 0.00 0.00 36 1014.5
20260502212621 54 255 0.0 6.0 0.00 0.00 0.00 40 1014.5
20260502212119 54 296 3.0 4.0 0.00 0.00 0.00 37 1014.6
20260502211614 54 203 6.0 7.0 0.00 0.00 0.00 37 1014.4
20260502211111 55 331 3.0 4.0 0.00 0.00 0.00 38 1014.6
20260502210609 55 284 3.0 6.0 0.00 0.00 0.00 39 1014.6
20260502210105 54 325 2.0 7.0 0.00 0.00 0.00 38 1014.6
20260502205602 55 201 5.0 9.0 0.00 0.00 0.00 38 1014.6
20260502205059 55 266 3.0 7.0 0.00 0.00 0.00 36 1014.6
20260502204555 55 67 0.0 4.0 0.00 0.00 0.00 42 1014.6
20260502204048 54 271 4.0 8.0 0.00 0.00 0.00 38 1014.5
20260502203545 55 208 11.0 11.0 0.00 0.00 0.00 38 1014.7
20260502203042 55 229 6.0 7.0 0.00 0.00 0.00 39 1014.6
20260502202538 55 257 5.0 9.0 0.00 0.00 0.00 40 1014.6
20260502202037 55 300 2.0 3.0 0.00 0.00 0.00 42 1014.6
20260502201532 55 4 3.0 6.0 0.00 0.00 0.00 39 1014.5
20260502201029 55 207 3.0 7.0 0.00 0.00 0.00 39 1014.8
20260502200525 55 253 0.0 4.0 0.00 0.00 0.00 38 1014.7
20260502200023 55 219 3.0 3.0 0.00 0.00 0.00 40 1014.8
20260502195521 55 277 4.0 6.0 0.00 0.00 0.00 39 1014.7
20260502195015 55 306 3.0 6.0 0.00 0.00 0.00 40 1014.8
20260502194512 54 280 6.0 8.0 0.00 0.00 0.00 38 1014.7
20260502194008 55 197 6.0 9.0 0.00 0.00 0.00 36 1014.9
20260502193506 55 214 5.0 7.0 0.00 0.00 0.00 37 1015.1
20260502193001 56 231 4.0 6.0 0.00 0.00 0.00 37 1015.2
20260502192458 55 261 1.0 2.0 0.00 0.00 0.00 41 1015.0
20260502191955 55 318 3.0 3.0 0.00 0.00 0.00 41 1015.3
20260502191452 55 322 1.0 8.0 0.00 0.00 0.00 47 1015.3
20260502190950 54 32 6.0 9.0 0.00 0.00 0.00 43 1015.4
20260502190447 55 1 6.0 8.0 0.00 0.00 0.00 41 1015.3
20260502185943 55 276 3.0 9.0 0.00 0.00 0.00 41 1015.1
20260502185439 55 283 2.0 6.0 0.00 0.00 0.00 38 1015.2
20260502184936 55 241 3.0 6.0 0.00 0.00 0.00 41 1015.4
20260502184431 55 294 3.0 8.0 0.00 0.00 0.00 39 1015.8
20260502183928 56 324 4.0 10.0 0.00 0.00 0.00 43 1015.6
20260502183425 56 322 3.0 3.0 0.00 0.00 0.00 42 1015.6
20260502182920 56 317 3.0 6.0 0.00 0.00 0.00 44 1015.7
20260502182415 55 266 0.0 6.0 0.00 0.00 0.00 43 1015.7
20260502181912 55 275 2.0 4.0 0.00 0.00 0.00 47 1015.7
20260502181405 55 221 3.0 10.0 0.00 0.00 0.00 40 1015.7
20260502180903 55 331 4.0 7.0 0.00 0.00 0.00 46 1015.7
20260502180359 55 13 2.0 6.0 0.00 0.00 0.00 44 1015.7